Location: Frankfurt am Main
(50.1109°N, 8.6821°E)
Time: 13:59:05
(UTC+01:00)

ISS - Pass Details

Date: 04 November 2021
Orbit: 417 x 422 km, 51.6° (Epoch: 07 December)

Event Time Altitude Azimuth Distance (km) Brightness Sun altitude
Exits shadow 05:33:25 53° 284° (WNW) 525 -3.7 -17.4°
Maximum altitude 05:34:08 88° 194° (SSW) 424 -3.9 -17.3°
Drops below altitude 10° 05:37:30 10° 108° (ESE) 1,496 0.3 -16.8°
Sets 05:39:35 0° 108° (ESE) 2,357 1.6 -16.4°
